K1FFK-1 Weather Reports


Display with metric or nautical units.
time (UTC)temp
F
wind
direction
speed
MPH
gust
MPH
rain 1hr
in
rain 24hr
in
rain mn
in
humidity
%
barometer
mb
20260504214134 55 222 3.0 3.0 0.00 0.00 0.00 52 1012.2
20260504213134 56 261 4.0 4.0 0.00 0.00 0.00 50 1012.5
20260504212133 55 234 3.0 3.0 0.00 0.00 0.00 52 1012.5
20260504211134 55 196 3.0 3.0 0.00 0.00 0.00 52 1012.5
20260504210134 54 227 3.0 3.0 0.00 0.00 0.00 53 1012.4
20260504205133 55 220 3.0 3.0 0.00 0.00 0.00 49 1012.5
20260504204133 54 303 4.0 4.0 0.00 0.00 0.00 51 1012.3
20260504203134 54 253 4.0 4.0 0.00 0.00 0.00 52 1012.5
20260504202134 56 306 2.0 2.0 0.00 0.00 0.00 50 1012.5
20260504201133 56 288 3.0 3.0 0.00 0.00 0.00 50 1012.6
20260504200134 55 210 3.0 3.0 0.00 0.00 0.00 51 1012.5
20260504195133 56 278 3.0 3.0 0.00 0.00 0.00 48 1012.5
20260504194133 55 251 2.0 2.0 0.00 0.00 0.00 52 1012.6
20260504193133 54 286 3.0 3.0 0.00 0.00 0.00 51 1012.7
20260504192133 54 213 2.0 2.0 0.00 0.00 0.00 53 1012.7
20260504191134 53 203 3.0 3.0 0.00 0.00 0.00 55 1012.7
20260504190133 53 209 3.0 3.0 0.00 0.00 0.00 55 1012.7
20260504185133 51 237 3.0 3.0 0.00 0.00 0.00 56 1012.6
20260504184134 51 243 0.0 0.0 0.00 0.00 0.00 57 1012.7
20260504183133 51 212 2.0 2.0 0.00 0.00 0.00 57 1012.7
20260504182134 51 298 2.0 2.0 0.00 0.00 0.00 55 1012.7
20260504181134 51 181 3.0 3.0 0.00 0.00 0.00 56 1012.8
20260504180134 51 296 2.0 2.0 0.00 0.00 0.00 56 1012.9
20260504175133 52 239 3.0 3.0 0.00 0.00 0.00 55 1012.9
20260504174133 52 291 2.0 2.0 0.00 0.00 0.00 55 1013.0
20260504173133 50 270 3.0 3.0 0.00 0.00 0.00 57 1013.1
20260504172133 50 334 2.0 2.0 0.00 0.00 0.00 56 1013.0
20260504171134 51 296 2.0 2.0 0.00 0.00 0.00 55 1013.1
20260504170134 52 250 3.0 3.0 0.00 0.00 0.00 53 1012.7
20260504160133 52 191 5.0 5.0 0.00 0.00 0.00 53 1013.0
20260504151134 48 295 4.0 4.0 0.00 0.00 0.00 59 1013.2
20260504150134 48 201 4.0 4.0 0.00 0.00 0.00 59 1013.3
20260504141134 45 309 4.0 4.0 0.00 0.00 0.00 62 1013.2
20260504140134 44 300 5.0 5.0 0.00 0.00 0.00 63 1013.3
20260504130134 41 329 4.0 4.0 0.00 0.00 0.00 66 1013.1
20260504120134 39 285 4.0 4.0 0.00 0.00 0.00 70 1013.3
20260504110134 38 309 5.0 5.0 0.00 0.00 0.00 72 1012.7
20260504100135 37 292 7.0 7.0 0.00 0.00 0.00 72 1012.1
20260504090133 36 227 3.0 3.0 0.00 0.00 0.00 76 1012.0
20260504081133 37 299 5.0 5.0 0.00 0.00 0.00 75 1012.3
20260504080133 37 306 5.0 5.0 0.00 0.00 0.00 76 1012.3
20260504070133 36 330 7.0 7.0 0.00 0.00 0.00 78 1012.0
20260504060134 36 340 8.0 8.0 0.00 0.00 0.00 78 1012.1
20260504050133 35 327 8.0 8.0 0.00 0.00 0.00 75 1012.5
20260504045133 35 336 5.0 5.0 0.00 0.00 0.00 74 1012.6
20260504044133 35 326 7.0 7.0 0.00 0.00 0.00 75 1012.7
20260504043134 35 329 7.0 7.0 0.00 0.00 0.00 75 1012.6
20260504042134 35 329 6.0 6.0 0.00 0.00 0.00 74 1012.6
20260504041134 35 327 6.0 6.0 0.00 0.00 0.00 74 1012.5
20260504040134 35 330 7.0 7.0 0.00 0.00 0.00 74 1012.4
20260504035133 35 341 9.0 9.0 0.00 0.00 0.00 74 1012.3
20260504034134 35 334 8.0 8.0 0.00 0.00 0.00 74 1012.4
20260504033134 35 341 9.0 9.0 0.00 0.00 0.00 74 1012.2
20260504032133 35 336 8.0 8.0 0.00 0.00 0.00 73 1012.2
20260504031134 35 334 8.0 8.0 0.00 0.00 0.00 72 1012.1
20260504030134 35 330 7.0 7.0 0.00 0.00 0.00 71 1012.1
20260504025134 35 334 6.0 6.0 0.00 0.00 0.00 69 1012.2
20260504024134 35 334 7.0 7.0 0.00 0.00 0.00 68 1012.2
20260504023134 35 326 8.0 8.0 0.00 0.00 0.00 67 1012.2
20260504022133 35 326 11.0 11.0 0.00 0.00 0.00 66 1012.1
20260504021133 35 334 9.0 9.0 0.00 0.00 0.00 65 1012.2
20260504020134 35 334 8.0 8.0 0.00 0.00 0.00 64 1012.1
20260504015134 35 337 9.0 9.0 0.00 0.00 0.00 63 1012.1
20260504014133 36 337 7.0 7.0 0.00 0.00 0.00 63 1011.9
20260504013133 35 329 10.0 10.0 0.00 0.00 0.00 62 1011.7
20260504012134 35 322 9.0 9.0 0.00 0.00 0.00 62 1011.7
20260504011133 35 327 9.0 9.0 0.00 0.00 0.00 61 1011.6
20260504010133 36 330 9.0 9.0 0.00 0.00 0.00 59 1011.6
20260504005133 36 327 11.0 11.0 0.00 0.00 0.00 58 1011.2
20260504004133 36 327 12.0 12.0 0.00 0.00 0.00 56 1011.2
20260504003134 36 333 12.0 12.0 0.00 0.00 0.00 55 1011.3
20260504002134 36 327 11.0 11.0 0.00 0.00 0.00 53 1011.0
20260504001133 36 329 11.0 11.0 0.00 0.00 0.00 52 1010.8
20260504000133 36 306 9.0 9.0 0.00 0.00 0.00 52 1010.8
20260503235133 37 327 9.0 9.0 0.00 0.00 0.00 50 1010.8
20260503234133 37 333 9.0 9.0 0.00 0.00 0.00 49 1010.8
20260503233133 37 330 7.0 7.0 0.00 0.00 0.00 48 1010.5
20260503232133 37 323 10.0 10.0 0.00 0.00 0.00 47 1010.8
20260503231134 37 312 8.0 8.0 0.00 0.00 0.00 47 1010.7
20260503230134 37 326 9.0 9.0 0.00 0.00 0.00 47 1010.6
20260503225134 38 323 12.0 12.0 0.00 0.00 0.00 48 1010.7
20260503224133 38 316 10.0 10.0 0.00 0.00 0.00 49 1010.7
20260503223134 38 306 7.0 7.0 0.00 0.00 0.00 50 1010.7
20260503222134 37 316 9.0 9.0 0.00 0.00 0.00 51 1010.6
20260503221133 37 320 8.0 8.0 0.00 0.00 0.00 53 1010.4
20260503220133 37 327 8.0 8.0 0.00 0.00 0.00 53 1010.5
20260503215134 36 316 9.0 9.0 0.00 0.00 0.00 57 1010.7